{"data":{"norad_id":61665,"epoch":"2026-09-21T16:25:12.634464Z","epoch_age_seconds":89674,"freshness":"FRESH","line1":"1 61665U 24193E   26264.68417401  .00002480  00000+0  84532-4 0  9993","line2":"2 61665  53.1600 259.9657 0001245  87.6010 272.5135 15.34394647106545","mean_motion":15.34394647,"eccentricity":0.0001245,"inclination_deg":53.16,"raan_deg":259.9657,"arg_perigee_deg":87.601,"mean_anomaly_deg":272.5135,"bstar":8.4532e-5,"rev_number":10654,"period_min":93.848085485403,"perigee_km":461.86746390672,"apogee_km":463.57083708819,"semimajor_km":6840.8561504975,"source":"CELESTRAK","updated_at":"2026-09-22T09:00:49.400627Z"}}